TimeCST,TemperatureF,Dew PointF,Humidity,Sea Level PressureIn,VisibilityMPH,Wind Direction,Wind SpeedMPH,Gust SpeedMPH,PrecipitationIn,Events,Conditions,WindDirDegrees,DateUTC
12:15 AM,7.0,1.4,78,30.02,10.0,WNW,8.1,-,N/A,,Overcast,290,2013-01-06 06:15:00
12:35 AM,7.2,0.7,75,30.02,10.0,WNW,6.9,-,N/A,,Overcast,290,2013-01-06 06:35:00
12:55 AM,7.3,0.5,74,30.02,10.0,WNW,5.8,-,N/A,,Overcast,300,2013-01-06 06:55:00
1:35 AM,8.1,-0.9,67,30.03,10.0,WNW,6.9,-,N/A,,Overcast,290,2013-01-06 07:35:00
1:55 AM,8.4,-1.3,65,30.04,10.0,West,5.8,-,N/A,,Overcast,280,2013-01-06 07:55:00
2:15 AM,7.7,-1.5,66,30.04,10.0,WNW,5.8,-,N/A,,Scattered Clouds,300,2013-01-06 08:15:00
2:35 AM,5.4,-2.0,72,30.04,10.0,West,3.5,-,N/A,,Clear,270,2013-01-06 08:35:00
2:55 AM,5.7,-2.2,70,30.05,10.0,West,4.6,-,N/A,,Clear,260,2013-01-06 08:55:00
3:35 AM,3.4,-2.2,78,30.06,10.0,Calm,Calm,-,N/A,,Overcast,0,2013-01-06 09:35:00
3:55 AM,4.6,-0.8,78,30.07,10.0,WNW,5.8,-,N/A,,Overcast,290,2013-01-06 09:55:00
4:15 AM,5.9,1.6,82,30.07,10.0,West,3.5,-,N/A,,Overcast,280,2013-01-06 10:15:00
4:35 AM,6.4,2.3,83,30.07,10.0,WNW,3.5,-,N/A,,Overcast,290,2013-01-06 10:35:00
4:55 AM,6.3,2.7,85,30.07,10.0,West,3.5,-,N/A,,Overcast,280,2013-01-06 10:55:00
5:15 AM,6.1,3.0,87,30.07,10.0,West,4.6,-,N/A,,Overcast,270,2013-01-06 11:15:00
5:35 AM,7.3,4.1,87,30.07,10.0,WSW,3.5,-,N/A,,Overcast,250,2013-01-06 11:35:00
5:55 AM,7.7,4.6,87,30.07,10.0,West,4.6,-,N/A,,Overcast,260,2013-01-06 11:55:00
6:15 AM,7.2,4.3,88,30.08,10.0,West,4.6,-,N/A,,Overcast,260,2013-01-06 12:15:00
6:35 AM,6.4,3.7,89,30.09,10.0,West,4.6,-,N/A,,Scattered Clouds,270,2013-01-06 12:35:00
6:55 AM,5.2,2.8,90,30.09,10.0,West,4.6,-,N/A,,Clear,270,2013-01-06 12:55:00
7:15 AM,3.4,1.2,91,30.11,10.0,WNW,3.5,-,N/A,,Clear,300,2013-01-06 13:15:00
7:35 AM,1.9,-0.6,89,30.11,10.0,Calm,Calm,-,N/A,,Clear,0,2013-01-06 13:35:00
7:55 AM,2.1,-0.0,91,30.12,10.0,Calm,Calm,-,N/A,,Clear,0,2013-01-06 13:55:00
8:15 AM,1.8,-0.9,88,30.12,10.0,Calm,Calm,-,N/A,,Clear,0,2013-01-06 14:15:00
8:35 AM,-0.2,-2.9,88,30.11,10.0,Calm,Calm,-,N/A,,Clear,0,2013-01-06 14:35:00
8:55 AM,-1.5,-4.4,88,30.12,10.0,Calm,Calm,-,N/A,,Clear,0,2013-01-06 14:55:00
9:15 AM,-0.6,-3.5,88,30.12,10.0,Calm,Calm,-,N/A,,Clear,0,2013-01-06 15:15:00
9:35 AM,2.5,-0.4,88,30.13,10.0,Calm,Calm,-,N/A,,Clear,0,2013-01-06 15:35:00
10:15 AM,5.5,3.0,89,30.12,7.0,Calm,Calm,-,N/A,,Mostly Cloudy,0,2013-01-06 16:15:00
10:35 AM,6.6,3.9,89,30.12,7.0,Calm,Calm,-,N/A,Snow,Light Snow,0,2013-01-06 16:35:00
10:55 AM,9.3,6.6,89,30.12,7.0,Calm,Calm,-,N/A,,Overcast,0,2013-01-06 16:55:00
11:15 AM,11.5,9.1,90,30.12,10.0,SW,4.6,-,N/A,Snow,Light Snow,220,2013-01-06 17:15:00
11:35 AM,12.2,9.7,90,30.11,7.0,SSW,3.5,-,N/A,,Overcast,200,2013-01-06 17:35:00
11:55 AM,12.7,10.2,90,30.10,10.0,SSW,4.6,-,N/A,,Mostly Cloudy,210,2013-01-06 17:55:00
12:15 PM,13.3,10.6,89,30.09,10.0,SSE,3.5,-,N/A,,Scattered Clouds,160,2013-01-06 18:15:00
12:35 PM,14.2,11.1,88,30.08,10.0,SSW,4.6,-,N/A,,Scattered Clouds,210,2013-01-06 18:35:00
12:55 PM,14.9,11.3,86,30.07,10.0,Calm,Calm,-,N/A,,Clear,0,2013-01-06 18:55:00
1:15 PM,15.8,10.8,80,30.05,10.0,SE,5.8,-,N/A,,Clear,130,2013-01-06 19:15:00
1:35 PM,16.9,10.8,77,30.05,10.0,SSE,3.5,-,N/A,,Clear,160,2013-01-06 19:35:00
1:55 PM,17.8,11.1,75,30.05,10.0,South,5.8,-,N/A,,Clear,180,2013-01-06 19:55:00
2:15 PM,18.7,11.1,72,30.04,10.0,SE,6.9,-,N/A,,Clear,140,2013-01-06 20:15:00
2:35 PM,18.7,10.9,72,30.04,10.0,SE,5.8,-,N/A,,Clear,140,2013-01-06 20:35:00
2:55 PM,19.4,11.7,72,30.03,10.0,SSE,8.1,-,N/A,,Clear,150,2013-01-06 20:55:00
3:15 PM,20.3,12.4,71,30.02,10.0,SSE,8.1,-,N/A,,Clear,160,2013-01-06 21:15:00
3:35 PM,20.7,12.9,72,30.02,10.0,South,11.5,-,N/A,,Clear,170,2013-01-06 21:35:00
3:55 PM,20.5,13.5,74,30.02,10.0,South,10.4,-,N/A,,Clear,170,2013-01-06 21:55:00
4:15 PM,19.6,13.5,77,30.01,10.0,South,9.2,-,N/A,,Clear,170,2013-01-06 22:15:00
4:35 PM,19.0,13.1,78,30.00,10.0,South,6.9,-,N/A,,Clear,180,2013-01-06 22:35:00
4:55 PM,18.1,12.9,80,30.00,10.0,South,6.9,-,N/A,,Clear,180,2013-01-06 22:55:00
5:15 PM,17.6,12.7,81,30.00,10.0,South,8.1,-,N/A,,Clear,170,2013-01-06 23:15:00
5:35 PM,16.5,12.4,84,29.99,10.0,SSE,11.5,-,N/A,,Clear,160,2013-01-06 23:35:00
5:55 PM,15.4,12.4,88,29.98,10.0,South,12.7,-,N/A,,Mostly Cloudy,170,2013-01-06 23:55:00
6:15 PM,15.4,13.1,90,29.97,10.0,South,9.2,-,N/A,,Overcast,180,2013-01-07 00:15:00
6:35 PM,15.6,13.1,90,29.96,10.0,South,10.4,-,N/A,,Overcast,170,2013-01-07 00:35:00
7:15 PM,14.9,13.1,93,29.93,7.0,South,8.1,-,N/A,,Overcast,170,2013-01-07 01:15:00
7:35 PM,15.3,13.3,92,29.92,7.0,South,11.5,-,N/A,,Overcast,170,2013-01-07 01:35:00
7:55 PM,15.3,13.5,93,29.89,7.0,South,10.4,16.1,N/A,,Overcast,170,2013-01-07 01:55:00
8:15 PM,15.4,13.6,93,29.88,7.0,SSE,10.4,-,N/A,,Overcast,160,2013-01-07 02:15:00
8:35 PM,15.3,13.6,93,29.86,7.0,SSE,10.4,-,N/A,,Overcast,160,2013-01-07 02:35:00
8:55 PM,15.3,13.6,93,29.84,7.0,SE,10.4,-,N/A,,Overcast,140,2013-01-07 02:55:00
9:15 PM,15.1,13.5,93,29.83,7.0,SSE,8.1,-,N/A,,Overcast,150,2013-01-07 03:15:00
9:35 PM,14.9,13.1,93,29.81,7.0,SE,9.2,-,N/A,,Overcast,140,2013-01-07 03:35:00
9:55 PM,14.9,12.9,92,29.82,7.0,SSE,10.4,-,N/A,,Overcast,160,2013-01-07 03:55:00
10:15 PM,14.9,12.7,91,29.80,7.0,SSE,10.4,-,N/A,,Mostly Cloudy,150,2013-01-07 04:15:00
10:55 PM,14.9,12.2,89,29.78,10.0,SSE,12.7,16.1,N/A,,Scattered Clouds,150,2013-01-07 04:55:00
11:15 PM,15.1,12.2,88,29.76,7.0,SSE,13.8,19.6,N/A,,Clear,160,2013-01-07 05:15:00
11:35 PM,15.6,12.7,88,29.76,10.0,South,6.9,-,N/A,,Clear,170,2013-01-07 05:35:00